Location: Eindhoven
(51.4416°N, 5.4697°E)
Time: 14:34:07
(UTC+01:00)

Tiros 1 - Pass Details

Date: 23 November 2019
Orbit: 630 x 664 km, 48.4° (Epoch: 07 December)

Event Time Altitude Azimuth Distance (km) Brightness Sun altitude
Rises 18:01:19 0° 278° (W) 2,921 11.8 -12.3°
Reaches altitude 10° 18:03:46 10° 269° (W) 2,014 11.0 -12.7°
Maximum altitude 18:08:00 36° 203° (SSW) 1,004 8.5 -13.3°
Drops below altitude 10° 18:12:15 10° 137° (SE) 2,020 9.4 -14.0°
Enters shadow 18:13:36 - 132° (SE) 2,517 9.9 -14.2°
